sat.trackr.live / text

‹ back to catalog

STARLINK-31088

NORAD 58604 · 2023-200R

PAYLOAD ACTIVE UNKNOWN

§ Identity

Operator
Country
US
Launch date
2023-12-19
Launch site
AFETR
Launch vehicle
Mass (kg)
RCS (m²)

Purposes: comms

External: N2YO · Heavens-Above · Gunter

§ Orbital elements

Epoch: 2026-05-25T04:47:27.264768Z

Period
94.27 min
Inclination
43.0011°
Eccentricity
0.0001234
Mean motion
15.27575294 rev/d
Perigee alt
482.2 km
Apogee alt
483.9 km
Semi-major
6,861.2 km
B*
2.1385e-4
RAAN
96.6099°
Arg perigee
256.6899°
Mean anomaly
103.3815°
Rev number
13,531

§ Raw data

STARLINK-310881 58604U 23200R   26145.19962112  .00005626  00000+0  21385-3 0  99992 58604  43.0011  96.6099 0001234 256.6899 103.3815 15.27575294135319

JSON: /api/v1/satellites/58604 · /tle

For live sub-satellite position, see the globe view (requires WebGL).

§ Visibility from observer

Set your observer location to see the next 7 days of passes ≥ 10°. The values pass through the URL so the page stays shareable.

No JS? Fill the form by hand. The geolocation button needs JavaScript.